Location: Peterborough
(44.3091°N, 78.3197°W)
Time: 16:16:09
(UTC-04:00)

Transit 4A - Pass Details

Date: 22 March 2023
Orbit: 864 x 980 km, 66.8° (Epoch: 04 June)

Event Time Altitude Azimuth Distance (km) Brightness Sun altitude
Rises 08:19:21 0° 210° (SSW) 3,429 10.7 11.0°
Reaches altitude 10° 08:21:48 10° 210° (SSW) 2,498 10.0 11.4°
Maximum altitude 08:27:34 90° 296° (WNW) 878 8.1 12.4°
Drops below altitude 10° 08:33:29 10° 32° (NNE) 2,556 10.5 13.5°
Sets 08:36:01 0° 32° (NNE) 3,514 11.2 13.9°
